Regional Weather Roundup
Issued by NWS

Home | Current Version | Previous Version | Text Only | Print | Product List | Glossary On
Versions: 1 2 3 4 5 6 7 8 9 10 11 12 13 14 15 16 17 18 19 20 21 22 23 24 25 26 27 28 29 30 31 32 33 34 35 36 37 38 39 40 41 42 43 44 45 46 47 48 49 50
000
ASUS46 KSEW 242110
RWRWA

WASHINGTON REGIONAL WEATHER ROUNDUP
NATIONAL WEATHER SERVICE SEATTLE WA
200 PM PDT WED MAY 24 2017

NOTE:"FAIR" INDICATES FEW OR NO CLOUDS BELOW 12,000 FEET WITH NO
SIGNIFICANT WEATHER AND/OR OBSTRUCTIONS TO VISIBILITY.

WAZ507-509-555>559-242200-
SEATTLE, TACOMA, EVERETT, AND VICINITY

CITY           SKY/WX    TMP DP  RH WIND       PRES   REMARKS
EVERETT        PTSUNNY   58  41  53 VRB3      30.00F
BOEING FIELD   PTSUNNY   60  40  47 VRB3      29.99F
RENTON         CLOUDY    62  42  47 N5        29.99F
SEATAC AIRPORT PTSUNNY   61  39  44 CALM      29.99F
JBLM-MCCHORD   CLOUDY    63  43  48 S5        29.97F
PUYALLUP         N/A     61  43  51 CALM      29.98F
BREMERTON      CLOUDY    59  40  49 S5        29.98F
JBLM-FT LEWIS  PTSUNNY   62  41  45 VRB5      30.00F
TACOMA NARROWS PTSUNNY   61  41  47 S5        29.98F
$$

WAZ001-503-506-510-514-515-242200-
NORTH INTERIOR

CITY           SKY/WX    TMP DP  RH WIND       PRES   REMARKS
BELLINGHAM     MOSUNNY   58  46  64 S9        29.98F
FRIDAY HARBOR  PTSUNNY   63  45  51 E7        29.99F
EASTSOUND      CLOUDY    57  43  58 CALM      29.98F
PORT ANGELES   SUNNY     55  47  74 NW16G25   29.98F
EDIZ HOOK      FAIR      56  47  72 NW18      29.98S
PORT TOWNSEND  NOT AVBL
NAS WHIDBEY    PTSUNNY   59  44  57 SW10      30.04S
ARLINGTON      PTSUNNY   57  41  54 CALM      30.02F
BURLINGTON     PTSUNNY   55  46  71 E5        30.00S
$$

WAZ020-022-039-040-504-511-512-242200-
SOUTHWEST INTERIOR

CITY           SKY/WX    TMP DP  RH WIND       PRES   REMARKS
SHELTON        CLOUDY    63  44  50 SW16      29.95F
OLYMPIA        PTSUNNY   61  43  51 W10       29.98F
CHEHALIS       CLOUDY    63  45  51 W9G16     30.00F
KELSO          CLOUDY    60  45  57 W9G22     30.02F
VANCOUVER      PTSUNNY   61  45  55 W6        30.02F
SCAPPOOSE, OR  CLOUDY    60  46  59 E9        30.01F
PORTLAND, OR   PTSUNNY   61  42  49 NW8       30.02F
$$

WAZ021-516-517-242200-
WASHINGTON COAST

CITY           SKY/WX    TMP DP  RH WIND       PRES   REMARKS
FORKS          PTSUNNY   58  48  69 NW10      30.01F
HOQUIAM        CLOUDY    55  48  77 W13       30.05F
ASTORIA, OR    CLOUDY    56  45  66 NW20G26   30.07S
$$

WAZ019-023-024-040-567>569-242200-
CASCADE MOUNTAINS AND COLUMBIA GORGE

CITY           SKY/WX    TMP DP  RH WIND       PRES   REMARKS
STAMPEDE PASS  CLOUDY    41  34  76 MISG      29.93F
TROUTDALE, OR  CLOUDY    62  42  47 VRB6      30.02F
THE DALLES, OR SUNNY     68  38  33 W25G38    29.91F
$$

WAZ026-027-041>044-520-521-242200-
EAST SLOPES

CITY           SKY/WX    TMP DP  RH WIND       PRES   REMARKS
OMAK           MOSUNNY   65  30  27 N8        29.74R
WENATCHEE      SUNNY     64  26  23 NW28G36   29.78F
ELLENSBURG     SUNNY     61  34  36 W28G38    29.85S
YAKIMA         SUNNY     70  32  24 NW18      29.82F
SUNNYSIDE ARPT NOT AVBL
$$

WAZ028-034-035-242200-
COLUMBIA BASIN

CITY           SKY/WX    TMP DP  RH WIND       PRES   REMARKS
EPHRATA        SUNNY     67  26  21 W12G22    29.76F
MOSES LAKE     MOSUNNY   68  27  21 W9G26     29.78F
PASCO          SUNNY     72  31  22 NW10G23   29.81F
HERMISTON, OR  SUNNY     68  29  23 CALM      29.84F
$$

WAZ036>038-242200-
NORTHEAST WASHINGTON

CITY           SKY/WX    TMP DP  RH WIND       PRES   REMARKS
SPOKANE GEIGER MOSUNNY   61  24  24 W20G30    29.73F
SPOKANE FELTS  MOSUNNY   64  26  23 SW14G30   29.72F
FAIRCHILD AFB  MOSUNNY   60  28  29 SW21G28   29.73F
COEURDALENE,ID MOSUNNY   62  29  28 SW14G25   29.71F
DEER PARK      PTSUNNY   63  23  21 SW15G22   29.71F
$$

WAZ029>033-242200-
SOUTHEAST WASHINGTON

CITY           SKY/WX    TMP DP  RH WIND       PRES   REMARKS
PULLMAN        MOSUNNY   57  32  38 W13G30    29.81F
LEWISTON, ID   SUNNY     65  32  29 NW17      29.76F
WALLA WALLA    SUNNY     65  33  30 S13       29.83F
PENDLETON, OR  SUNNY     62  32  32 SW9       29.85F
$$



USA.gov is the U.S. government's official web portal to all federal, state and local government web resources and services.